Location: Conflandey
(47.7287°N, 6.0456°E)
Time: 03:42:09
(UTC+00:00)

PSLV R/B - Pass Details

Date: 24 October 2021
Orbit: 501 x 576 km, 97.8° (Epoch: 28 November)

Event Time Altitude Azimuth Distance (km) Brightness Sun altitude
Rises 17:00:17 0° 162° (SSE) 2,752 7.3 -5.6°
Reaches altitude 10° 17:02:26 10° 161° (SSE) 1,851 6.4 -5.9°
Maximum altitude 17:06:26 78° 75° (ENE) 572 3.8 -6.6°
Drops below altitude 10° 17:10:23 10° 349° (N) 1,824 6.5 -7.3°
Sets 17:12:29 0° 348° (NNW) 2,709 7.4 -7.6°
